FHV69 PASI-PAJN

Flight info

Callsign FHV69
Flight time 0h 26m
Altitude 13000
Route HAWRD5 TNAKY
Aircraft A319/M-SDE3FGHIRWY/LB1

Departure

Time 2026-04-22 00:00
Airport Sitka Rocky Gutierrez Airport (PASI)

Arrival

Time 2026-04-22 00:26
Airport Juneau International Airport (PAJN)
Time Latitude Longitude Altitude Speed Heading
2026-04-21 23:57 57.05233 -135.36824 14 ft 0 kts 137°
2026-04-21 23:58 57.05232 -135.36819 14 ft 1 kts 110°
2026-04-21 23:58 57.05252 -135.36819 14 ft 7 kts 326°
2026-04-21 23:59 57.05305 -135.36949 14 ft 17 kts 312°
2026-04-21 23:59 57.05383 -135.37103 13 ft 14 kts 303°
2026-04-21 23:59 57.05369 -135.37242 13 ft 9 kts 227°
2026-04-21 23:59 57.05322 -135.37256 12 ft 7 kts 154°
2026-04-22 00:00 57.05215 -135.37070 13 ft 54 kts 136°
2026-04-22 00:00 57.04730 -135.36214 13 ft 134 kts 140°
2026-04-22 00:00 57.03992 -135.34825 403 ft 169 kts 137°
2026-04-22 00:00 57.03091 -135.33270 748 ft 186 kts 139°
2026-04-22 00:01 57.02111 -135.31604 984 ft 196 kts 140°
2026-04-22 00:01 57.00893 -135.30484 1235 ft 202 kts 178°
2026-04-22 00:01 56.99559 -135.31189 2058 ft 207 kts 220°
2026-04-22 00:01 56.98798 -135.33205 3246 ft 195 kts 259°
2026-04-22 00:02 56.98856 -135.35564 4314 ft 190 kts 290°
2026-04-22 00:02 56.99321 -135.37813 5291 ft 194 kts 292°
2026-04-22 00:02 56.99785 -135.40093 6300 ft 195 kts 291°
2026-04-22 00:02 57.00237 -135.42355 7321 ft 195 kts 291°
2026-04-22 00:03 57.00684 -135.44627 8388 ft 192 kts 292°
2026-04-22 00:03 57.01125 -135.46869 9419 ft 188 kts 294°
2026-04-22 00:03 57.01783 -135.48848 10372 ft 185 kts 314°
2026-04-22 00:03 57.02835 -135.50183 11214 ft 192 kts 332°
2026-04-22 00:04 57.04151 -135.50709 11745 ft 201 kts 351°
2026-04-22 00:04 57.05576 -135.50668 12010 ft 213 kts 353°
2026-04-22 00:04 57.07158 -135.50600 12039 ft 243 kts 354°
2026-04-22 00:04 57.08968 -135.50510 12040 ft 278 kts 355°
2026-04-22 00:05 57.11013 -135.50380 12038 ft 298 kts 356°
2026-04-22 00:05 57.13175 -135.50224 12037 ft 324 kts 356°
2026-04-22 00:05 57.15485 -135.50056 12031 ft 334 kts 356°
2026-04-22 00:05 57.17839 -135.49881 12030 ft 337 kts 357°
2026-04-22 00:06 57.19999 -135.49724 12026 ft 337 kts 356°
2026-04-22 00:06 57.22379 -135.49542 12023 ft 338 kts 358°
2026-04-22 00:06 57.24638 -135.49052 12026 ft 342 kts
2026-04-22 00:06 57.27025 -135.48048 12024 ft 346 kts
2026-04-22 00:07 57.29239 -135.46901 12020 ft 347 kts
2026-04-22 00:07 57.31583 -135.45645 12017 ft 347 kts 10°
2026-04-22 00:07 57.33905 -135.44400 12014 ft 348 kts 10°
2026-04-22 00:07 57.36256 -135.43138 12000 ft 348 kts 10°
2026-04-22 00:08 57.38572 -135.41895 11998 ft 348 kts 10°
2026-04-22 00:08 57.40880 -135.40657 11994 ft 348 kts 10°
2026-04-22 00:08 57.43228 -135.39400 11994 ft 347 kts 10°
2026-04-22 00:08 57.45551 -135.38153 11994 ft 348 kts 10°
2026-04-22 00:09 57.47860 -135.36914 11993 ft 347 kts 10°
2026-04-22 00:09 57.50193 -135.35661 11762 ft 347 kts 10°
2026-04-22 00:09 57.52518 -135.34409 11498 ft 346 kts 10°
2026-04-22 00:09 57.54834 -135.33162 11241 ft 345 kts 10°
2026-04-22 00:10 57.57127 -135.31926 10979 ft 344 kts 10°
2026-04-22 00:10 57.59435 -135.30681 10724 ft 343 kts 11°
2026-04-22 00:10 57.61715 -135.29448 10475 ft 343 kts 11°
2026-04-22 00:10 57.64001 -135.28209 10159 ft 336 kts 11°
2026-04-22 00:11 57.66209 -135.27006 9886 ft 327 kts 11°
2026-04-22 00:11 57.68339 -135.25844 9751 ft 314 kts 11°
2026-04-22 00:11 57.70417 -135.24709 9618 ft 303 kts 11°
2026-04-22 00:11 57.72386 -135.23636 9487 ft 292 kts 11°
2026-04-22 00:12 57.74323 -135.22580 9352 ft 282 kts 11°
2026-04-22 00:12 57.76167 -135.21573 9216 ft 276 kts 10°
2026-04-22 00:12 57.78022 -135.20566 9084 ft 275 kts 11°
2026-04-22 00:12 57.79842 -135.19580 8956 ft 275 kts 11°
2026-04-22 00:13 57.81694 -135.18574 8833 ft 275 kts 11°
2026-04-22 00:13 57.83527 -135.17570 8706 ft 275 kts 11°
2026-04-22 00:13 57.85390 -135.16553 8702 ft 279 kts 12°
2026-04-22 00:13 57.87242 -135.15533 8509 ft 275 kts 12°
2026-04-22 00:14 57.89074 -135.14526 8377 ft 273 kts 12°
2026-04-22 00:14 57.90911 -135.13513 8281 ft 273 kts 12°
2026-04-22 00:14 57.92739 -135.12509 8190 ft 273 kts 12°
2026-04-22 00:14 57.94552 -135.11510 8112 ft 274 kts 12°
2026-04-22 00:15 57.96397 -135.10492 8040 ft 274 kts 12°
2026-04-22 00:15 57.98216 -135.09486 7983 ft 274 kts 12°
2026-04-22 00:15 58.00051 -135.08472 7932 ft 274 kts 12°
2026-04-22 00:15 58.01862 -135.07468 7888 ft 274 kts 12°
2026-04-22 00:16 58.03708 -135.06447 7855 ft 274 kts 12°
2026-04-22 00:16 58.05547 -135.05563 7822 ft 272 kts
2026-04-22 00:16 58.07422 -135.05344 7698 ft 265 kts 357°
2026-04-22 00:16 58.09252 -135.05322 7305 ft 267 kts 356°
2026-04-22 00:17 58.11114 -135.05328 6943 ft 267 kts 357°
2026-04-22 00:17 58.12992 -135.05319 6623 ft 266 kts 358°
2026-04-22 00:17 58.14775 -135.05299 6335 ft 265 kts 358°
2026-04-22 00:17 58.16627 -135.05264 6024 ft 265 kts 358°
2026-04-22 00:18 58.18429 -135.05229 5745 ft 266 kts 358°
2026-04-22 00:18 58.20301 -135.05190 5484 ft 266 kts 358°
2026-04-22 00:18 58.22125 -135.05145 5240 ft 266 kts
2026-04-22 00:18 58.23896 -135.04785 5061 ft 261 kts
2026-04-22 00:19 58.25545 -135.04262 5009 ft 251 kts
2026-04-22 00:19 58.27228 -135.03688 4985 ft 238 kts
2026-04-22 00:19 58.28818 -135.03146 4917 ft 230 kts
2026-04-22 00:19 58.30392 -135.02620 4724 ft 228 kts
2026-04-22 00:20 58.31949 -135.02107 4528 ft 226 kts
2026-04-22 00:20 58.33496 -135.01594 4346 ft 223 kts
2026-04-22 00:20 58.34955 -135.00821 4025 ft 217 kts 32°
2026-04-22 00:20 58.35842 -134.98663 3703 ft 206 kts 78°
2026-04-22 00:21 58.35863 -134.96094 3490 ft 191 kts 96°
2026-04-22 00:21 58.35792 -134.93581 3217 ft 183 kts 95°
2026-04-22 00:21 58.35759 -134.91303 3110 ft 165 kts 94°
2026-04-22 00:21 58.35748 -134.89186 2970 ft 151 kts 93°
2026-04-22 00:22 58.35746 -134.87248 2878 ft 141 kts 93°
2026-04-22 00:22 58.35748 -134.85461 2699 ft 133 kts 93°
2026-04-22 00:22 58.35749 -134.83731 2503 ft 130 kts 92°
2026-04-22 00:22 58.35751 -134.81999 2323 ft 129 kts 92°
2026-04-22 00:23 58.35755 -134.80286 2147 ft 128 kts 92°
2026-04-22 00:23 58.35760 -134.78600 1970 ft 127 kts 92°
2026-04-22 00:23 58.35764 -134.76926 1798 ft 126 kts 92°
2026-04-22 00:23 58.35770 -134.75244 1583 ft 126 kts 91°
2026-04-22 00:24 58.35780 -134.73592 1297 ft 126 kts 90°
2026-04-22 00:24 58.35772 -134.71931 980 ft 123 kts 93°
2026-04-22 00:24 58.35738 -134.70325 704 ft 120 kts 92°
2026-04-22 00:24 58.35723 -134.68753 444 ft 118 kts 91°
2026-04-22 00:25 58.35719 -134.67192 248 ft 116 kts 90°
2026-04-22 00:25 58.35763 -134.65669 309 ft 115 kts 87°
2026-04-22 00:25 58.35808 -134.64127 393 ft 118 kts 86°
2026-04-22 00:25 58.35886 -134.62566 311 ft 117 kts 87°
2026-04-22 00:26 58.35930 -134.61028 86 ft 115 kts 96°
2026-04-22 00:26 58.35761 -134.59525 -6 ft 115 kts 105°
2026-04-22 00:26 58.35581 -134.58226 -16 ft 83 kts 104°
2026-04-22 00:26 58.35464 -134.57410 -18 ft 34 kts 105°
2026-04-22 00:27 58.35520 -134.57278 -18 ft 12 kts 338°
2026-04-22 00:27 58.35569 -134.57378 -18 ft 12 kts 286°
2026-04-22 00:27 58.35572 -134.57397 -18 ft 12 kts 286°
2026-04-22 00:27 58.35585 -134.57483 -17 ft 13 kts 285°
2026-04-22 00:28 58.35612 -134.57671 -16 ft 15 kts 284°
2026-04-22 00:28 58.35641 -134.57867 -15 ft 8 kts 294°
2026-04-22 00:28 58.35650 -134.57928 -15 ft 15 kts 271°
2026-04-22 00:28 58.35677 -134.58144 -15 ft 17 kts 285°
2026-04-22 00:29 58.35726 -134.58298 -15 ft 13 kts 351°
2026-04-22 00:29 58.35825 -134.58299 -15 ft 11 kts 358°